Total_Precipitation_Accumulation
0.09 0.29 0.66 1.06 1.85 2.19 1.63 0.90 0.56 0.35 0.39 0.48 0.59 0.72 0.78 0.95 1.38 2.23 2.07 1.68 1.57 1.77 1.85 1.92 2.01 1.87 2.00 2.14 2.18 2.30 2.58 2.75 2.72 2.48 2.47 2.74 3.02 3.23 3.33 3.23 3.20 3.42 3.85 4.04 3.88 3.64 3.46 3.30 3.15
0.22 0.56 0.91 1.42 2.06 1.76 1.30 0.74 0.42 0.31 0.32 0.43 0.48 0.47 0.50 0.55 0.64 1.06 1.54 1.49 1.32 1.39 1.46 1.54 1.78 1.77 1.77 1.91 2.00 2.11 2.31 2.52 2.56 2.44 2.37 2.64 2.97 3.26 3.46 3.43 3.28 3.45 3.80 4.13 4.02 3.78 3.55 3.28 3.04
0.41 0.69 1.09 1.63 1.52 1.13 0.90 0.51 0.37 0.34 0.40 0.49 0.47 0.43 0.52 0.76 0.70 0.96 1.30 1.26 1.20 1.27 1.35 1.64 1.72 1.67 1.67 1.72 1.81 1.98 2.09 2.20 2.32 2.38 2.48 2.75 3.10 3.42 3.49 3.36 3.27 3.34 3.57 3.94 4.09 3.68 3.21 2.94 2.82
0.58 0.87 1.11 1.27 0.92 0.67 0.57 0.42 0.33 0.31 0.47 0.60 0.63 0.54 0.55 0.69 0.77 0.96 1.11 1.12 1.23 1.39 1.42 1.57 1.69 1.56 1.58 1.64 1.70 1.88 1.98 2.08 2.27 2.40 2.50 2.86 3.15 3.35 3.37 3.19 3.11 3.22 3.34 3.58 3.68 3.34 2.88 2.72 2.82
0.75 1.09 1.33 0.94 0.60 0.51 0.45 0.36 0.31 0.31 0.40 0.62 0.71 0.77 0.88 0.97 0.86 0.88 0.99 1.05 1.13 1.29 1.45 1.56 1.61 1.46 1.45 1.47 1.56 1.78 1.90 2.04 2.26 2.35 2.52 2.82 3.11 3.26 3.32 3.20 3.24 3.20 3.30 3.48 3.29 2.98 2.80 2.91 2.91
0.85 1.08 1.02 0.69 0.45 0.38 0.34 0.31 0.33 0.35 0.50 0.60 0.65 0.81 1.17 1.25 1.02 0.92 1.04 1.13 1.13 1.12 1.31 1.51 1.53 1.37 1.32 1.39 1.53 1.68 1.85 2.01 2.19 2.27 2.45 2.78 3.10 3.11 2.92 2.96 3.11 2.96 3.07 3.19 2.99 2.74 2.61 2.77 2.85
0.71 0.72 0.57 0.51 0.48 0.42 0.31 0.28 0.38 0.41 0.68 0.83 0.87 0.90 1.29 1.41 1.09 1.00 1.17 1.30 1.28 1.13 1.23 1.37 1.43 1.36 1.32 1.42 1.63 1.77 1.86 2.04 2.22 2.26 2.47 2.86 3.07 3.03 2.84 2.80 2.87 2.88 3.01 2.87 2.74 2.74 2.57 2.56 2.77
0.36 0.42 0.36 0.37 0.42 0.39 0.30 0.27 0.36 0.44 0.60 0.66 0.81 1.02 1.36 1.28 1.01 1.05 1.23 1.38 1.32 1.25 1.33 1.31 1.39 1.28 1.24 1.38 1.76 2.01 2.11 2.27 2.44 2.52 2.71 3.15 3.23 3.14 2.95 2.71 2.77 2.81 2.82 2.78 2.77 2.79 2.68 2.65 2.84
0.28 0.34 0.35 0.29 0.26 0.28 0.22 0.25 0.28 0.45 0.52 0.54 0.69 0.88 1.15 0.98 0.97 1.18 1.45 1.55 1.46 1.45 1.56 1.48 1.52 1.33 1.36 1.42 1.72 2.12 2.26 2.48 2.79 3.07 3.34 3.67 3.80 3.47 3.37 2.95 3.17 3.19 3.09 3.13 3.14 3.14 3.05 2.93 3.04
0.25 0.28 0.21 0.15 0.14 0.18 0.18 0.23 0.29 0.44 0.82 1.00 1.14 1.10 1.00 1.04 1.12 1.24 1.45 1.60 1.62 1.67 1.49 1.51 1.59 1.48 1.60 1.58 1.91 2.53 2.58 2.82 3.16 3.46 3.57 3.81 3.95 3.93 3.41 3.61 4.00 4.08 4.06 4.08 4.08 4.06 3.75 3.20 2.97
0.18 0.16 0.11 0.11 0.10 0.12 0.15 0.20 0.21 0.38 0.95 1.47 1.60 1.28 1.00 1.17 1.35 1.53 1.61 1.70 1.61 1.67 1.51 1.62 1.74 1.87 1.95 2.25 2.07 2.29 2.73 3.10 3.27 3.53 3.84 3.96 3.74 3.65 3.58 3.97 4.49 4.65 4.60 4.52 4.50 4.44 3.86 3.50 3.50
0.10 0.08 0.09 0.08 0.10 0.12 0.14 0.19 0.23 0.38 0.87 1.27 1.30 1.10 1.00 1.25 1.43 1.69 1.87 2.09 2.16 2.16 2.13 2.08 2.27 2.52 2.54 2.34 2.30 2.18 2.30 2.61 3.08 3.50 3.49 3.66 4.09 4.09 3.85 3.97 4.18 4.39 4.51 4.75 4.37 4.22 4.09 3.91 3.60
0.09 0.08 0.08 0.10 0.13 0.15 0.18 0.19 0.28 0.50 0.62 0.68 0.80 0.88 1.05 1.34 1.65 1.99 2.27 2.53 2.62 2.93 3.09 3.05 3.04 2.99 3.05 3.06 2.92 2.46 2.60 2.60 2.74 3.28 3.41 3.45 3.92 4.23 4.21 4.17 4.34 3.95 3.98 4.35 4.41 4.02 4.04 4.11 3.87
0.09 0.09 0.08 0.11 0.14 0.18 0.20 0.26 0.35 0.60 0.64 0.68 0.76 0.83 0.99 1.46 1.99 2.42 2.55 2.72 2.99 3.68 4.21 4.00 3.83 3.58 3.49 3.55 3.53 3.46 3.10 3.00 2.84 3.16 3.35 3.51 3.87 4.17 4.30 4.29 4.34 3.88 3.69 3.86 4.00 3.89 4.06 4.03 3.91
0.12 0.13 0.16 0.15 0.15 0.22 0.30 0.47 0.56 0.72 0.72 0.74 0.87 0.92 1.06 1.47 1.88 2.57 2.98 3.28 3.57 4.35 4.95 4.73 4.58 4.58 4.39 4.30 3.99 3.60 3.33 3.15 3.34 3.54 3.70 3.82 3.90 4.22 4.42 4.39 4.23 4.06 3.98 3.97 3.90 3.92 4.22 3.94 3.76
0.18 0.21 0.34 0.26 0.20 0.23 0.39 0.85 0.85 0.82 0.75 0.84 1.05 0.99 1.02 1.34 1.84 2.53 3.19 3.78 4.14 4.53 4.99 5.36 4.97 5.38 5.36 5.15 4.77 4.29 3.99 3.96 3.91 3.83 3.99 3.82 3.76 3.89 4.31 4.14 3.87 4.05 4.13 4.21 4.15 4.06 4.17 4.20 4.25
0.25 0.31 0.44 0.40 0.27 0.25 0.36 0.93 0.96 0.72 0.73 0.89 1.07 1.09 1.12 1.39 1.77 2.27 2.92 3.57 4.17 4.77 5.34 5.85 6.04 6.12 5.73 5.45 5.20 5.01 4.66 4.35 3.92 3.53 3.47 3.36 3.15 3.14 3.36 3.33 3.36 3.40 3.59 3.52 3.28 3.66 3.88 4.11 4.28
0.26 0.26 0.33 0.49 0.39 0.29 0.39 0.72 0.84 0.75 0.72 0.92 1.15 1.14 1.19 1.41 1.81 2.22 2.77 3.26 3.97 4.87 5.78 6.24 6.41 6.02 5.60 5.29 4.98 4.89 4.51 4.11 3.74 3.35 3.09 2.92 2.89 2.76 2.96 2.79 2.87 3.05 3.31 3.36 3.42 3.66 3.60 3.53 3.71
0.18 0.23 0.28 0.39 0.32 0.31 0.46 0.73 0.84 0.84 0.87 1.02 1.22 1.23 1.24 1.36 1.77 2.25 2.76 3.24 3.95 4.91 5.93 6.39 6.26 5.68 5.15 4.73 4.39 4.19 3.85 3.55 3.42 3.10 2.75 2.72 2.71 2.75 3.05 2.77 3.12 3.13 3.21 3.20 3.11 3.25 3.23 2.99 3.12
0.17 0.25 0.29 0.36 0.30 0.34 0.50 0.80 0.98 1.06 1.12 1.05 1.14 1.26 1.20 1.36 1.82 2.34 2.93 3.31 3.67 4.24 5.07 5.47 5.19 4.61 3.95 3.69 3.64 3.65 3.59 3.18 2.94 2.85 2.84 2.54 2.55 2.64 2.72 2.89 2.75 2.81 3.03 2.93 2.87 3.20 3.20 2.86 2.93
0.18 0.23 0.28 0.34 0.31 0.40 0.56 1.06 1.33 1.30 1.05 0.86 0.80 0.96 1.01 1.12 1.62 2.35 2.91 3.18 3.45 3.73 3.81 3.95 3.88 3.45 3.14 3.07 3.08 3.13 3.31 3.08 2.78 2.69 2.64 2.40 2.30 2.29 2.45 2.54 2.67 2.79 2.70 2.82 2.90 2.99 3.13 3.07 2.90
0.18 0.15 0.16 0.23 0.36 0.57 0.65 1.47 1.74 1.43 1.17 0.95 0.80 0.82 0.90 1.06 1.47 2.21 2.52 2.65 2.70 2.81 2.69 2.78 2.88 2.80 2.77 2.68 2.68 2.57 2.46 2.47 2.38 2.39 2.36 2.34 2.21 2.14 2.09 2.22 2.48 2.63 2.58 2.84 2.57 2.73 3.01 3.14 2.89
0.16 0.13 0.14 0.22 0.38 0.59 0.83 1.38 1.85 1.58 1.36 1.03 0.78 0.75 0.91 0.96 1.18 1.51 1.63 1.78 1.85 1.91 1.95 2.20 2.57 2.72 2.62 2.51 2.61 2.61 2.30 2.19 2.15 2.21 2.35 2.33 2.22 2.11 2.00 2.08 2.30 2.45 2.51 2.61 2.64 2.95 2.89 2.81 2.80
0.13 0.17 0.23 0.39 0.60 1.05 1.10 1.28 1.73 1.55 1.22 0.85 0.69 0.69 0.64 0.68 0.88 1.06 1.16 1.26 1.33 1.38 1.50 1.75 2.19 2.43 2.36 2.32 2.34 2.30 2.25 2.24 2.18 2.13 2.19 2.16 2.13 2.20 2.28 2.24 2.30 2.28 2.31 2.39 2.52 2.76 2.75 2.70 2.78
0.13 0.20 0.49 0.95 1.43 1.57 1.01 1.18 1.56 1.18 0.87 0.64 0.52 0.53 0.56 0.69 0.78 0.92 1.12 1.19 1.14 1.11 1.23 1.40 1.71 1.86 1.85 1.95 2.10 2.17 2.23 2.22 2.08 2.02 1.99 1.96 1.80 1.90 2.17 2.33 2.40 2.41 2.40 2.32 2.44 2.53 2.53 2.59 2.74
0.16 0.18 0.38 0.69 0.87 1.01 0.95 1.43 1.57 0.92 0.67 0.56 0.49 0.47 0.58 0.67 0.67 0.75 0.90 0.91 0.92 0.99 1.06 1.20 1.36 1.44 1.52 1.63 1.85 2.03 2.06 2.03 1.99 2.13 2.01 1.85 1.65 1.59 1.81 2.08 2.20 2.20 2.16 2.15 2.59 2.39 2.34 2.51 2.60
0.14 0.15 0.17 0.26 0.37 0.72 1.12 1.40 1.28 0.84 0.60 0.52 0.49 0.44 0.54 0.55 0.52 0.57 0.69 0.74 0.78 0.95 1.05 1.09 1.20 1.30 1.39 1.48 1.75 1.91 1.92 1.87 1.91 2.01 1.93 1.74 1.75 1.64 1.71 1.76 2.04 2.15 2.10 2.14 2.38 2.33 2.29 2.45 2.45
0.12 0.13 0.14 0.21 0.40 0.72 1.14 1.54 1.46 1.10 0.79 0.67 0.52 0.44 0.50 0.49 0.48 0.56 0.61 0.69 0.69 0.72 0.88 0.99 1.07 1.24 1.41 1.49 1.55 1.58 1.74 1.71 1.69 1.65 1.62 1.70 1.74 1.70 1.75 1.83 1.83 1.93 2.07 2.17 2.32 2.19 2.15 2.29 2.38
0.13 0.11 0.13 0.15 0.23 0.51 1.01 1.29 0.95 0.81 0.65 0.64 0.60 0.54 0.53 0.58 0.58 0.58 0.65 0.66 0.63 0.63 0.78 0.91 1.00 1.13 1.25 1.29 1.33 1.43 1.52 1.51 1.47 1.47 1.45 1.56 1.60 1.64 1.65 1.69 1.76 1.77 1.87 2.14 2.43 2.34 2.34 2.39 2.41
0.11 0.09 0.12 0.16 0.20 0.28 0.61 0.83 0.54 0.56 0.54 0.61 0.62 0.64 0.69 0.77 0.75 0.72 0.75 0.72 0.72 0.73 0.78 0.87 0.88 0.94 1.02 1.10 1.19 1.24 1.37 1.39 1.38 1.42 1.55 1.63 1.61 1.56 1.47 1.52 1.59 1.54 1.66 1.92 2.23 2.39 2.53 2.67 2.63